VLG9RK LEMH-LEBL

Flight info

Callsign VLG9RK
Flight time 0h 32m
Altitude 18000
Route LUNIK Q255 OSTUR
Aircraft A320/M-SDE3FGHIRWY/LB1

Departure

Time 2026-05-07 18:56
Airport Menorca Airport (LEMH)

Arrival

Time 2026-05-07 19:28
Airport Josep Tarradellas Barcelona-El Prat Airport (LEBL)
Time Latitude Longitude Altitude Speed Heading
2026-05-07 18:12 39.86425 4.22396 287 ft 0 kts 99°
2026-05-07 18:41 39.86427 4.22376 289 ft 4 kts 103°
2026-05-07 18:41 39.86436 4.22343 292 ft 4 kts 120°
2026-05-07 18:41 39.86452 4.22318 294 ft 4 kts 162°
2026-05-07 18:42 39.86465 4.22316 288 ft 1 kts 189°
2026-05-07 18:42 39.86467 4.22317 288 ft 0 kts 189°
2026-05-07 18:45 39.86466 4.22316 288 ft 1 kts 189°
2026-05-07 18:45 39.86454 4.22314 288 ft 3 kts 189°
2026-05-07 18:45 39.86419 4.22306 288 ft 7 kts 190°
2026-05-07 18:46 39.86363 4.22295 288 ft 9 kts 188°
2026-05-07 18:46 39.86304 4.22283 288 ft 8 kts 188°
2026-05-07 18:46 39.86249 4.22273 288 ft 8 kts 188°
2026-05-07 18:46 39.86197 4.22256 288 ft 7 kts 212°
2026-05-07 18:47 39.86184 4.22207 292 ft 4 kts 274°
2026-05-07 18:47 39.86187 4.22184 293 ft 3 kts 280°
2026-05-07 18:47 39.86192 4.22137 292 ft 8 kts 276°
2026-05-07 18:47 39.86184 4.22095 294 ft 3 kts 232°
2026-05-07 18:48 39.86157 4.22080 295 ft 8 kts 191°
2026-05-07 18:48 39.86081 4.22066 295 ft 12 kts 189°
2026-05-07 18:48 39.86005 4.22051 296 ft 10 kts 189°
2026-05-07 18:48 39.85942 4.22038 296 ft 8 kts 189°
2026-05-07 18:49 39.85888 4.22027 298 ft 8 kts 189°
2026-05-07 18:49 39.85833 4.22015 294 ft 8 kts 189°
2026-05-07 18:49 39.85771 4.22003 295 ft 10 kts 189°
2026-05-07 18:49 39.85689 4.21986 290 ft 12 kts 189°
2026-05-07 18:50 39.85601 4.21968 288 ft 13 kts 189°
2026-05-07 18:50 39.85506 4.21948 287 ft 14 kts 189°
2026-05-07 18:50 39.85424 4.21932 283 ft 12 kts 188°
2026-05-07 18:50 39.85345 4.21916 282 ft 12 kts 189°
2026-05-07 18:51 39.85266 4.21899 285 ft 11 kts 189°
2026-05-07 18:51 39.85198 4.21885 281 ft 8 kts 188°
2026-05-07 18:51 39.85154 4.21876 281 ft 5 kts 194°
2026-05-07 18:51 39.85131 4.21855 283 ft 4 kts 230°
2026-05-07 18:52 39.85127 4.21816 283 ft 3 kts 277°
2026-05-07 18:52 39.85130 4.21789 287 ft 5 kts 278°
2026-05-07 18:52 39.85131 4.21776 283 ft 0 kts 278°
2026-05-07 18:54 39.85132 4.21764 284 ft 5 kts 278°
2026-05-07 18:54 39.85143 4.21694 285 ft 8 kts 286°
2026-05-07 18:54 39.85160 4.21647 292 ft 4 kts 316°
2026-05-07 18:55 39.85180 4.21643 286 ft 3 kts
2026-05-07 18:55 39.85193 4.21645 286 ft 0 kts
2026-05-07 18:55 39.85194 4.21646 286 ft 2 kts
2026-05-07 18:55 39.85420 4.21693 287 ft 71 kts
2026-05-07 18:56 39.86124 4.21837 304 ft 131 kts
2026-05-07 18:56 39.87131 4.22056 702 ft 149 kts 12°
2026-05-07 18:56 39.88166 4.22273 1421 ft 152 kts 13°
2026-05-07 18:56 39.89253 4.22489 1901 ft 169 kts 15°
2026-05-07 18:57 39.90474 4.22751 2296 ft 186 kts 14°
2026-05-07 18:57 39.91796 4.23036 2642 ft 206 kts 14°
2026-05-07 18:57 39.93284 4.23354 2966 ft 229 kts 13°
2026-05-07 18:57 39.94962 4.23579 3335 ft 257 kts 356°
2026-05-07 18:58 39.96652 4.22655 3991 ft 276 kts 323°
2026-05-07 18:58 39.97989 4.20814 4849 ft 284 kts 307°
2026-05-07 18:58 39.99043 4.18618 5752 ft 287 kts 298°
2026-05-07 18:58 39.99833 4.16230 6721 ft 288 kts 287°
2026-05-07 18:59 40.00002 4.13640 7553 ft 291 kts 259°
2026-05-07 18:59 39.99320 4.11198 8376 ft 293 kts 240°
2026-05-07 18:59 39.98453 4.08781 9210 ft 297 kts 251°
2026-05-07 18:59 39.98072 4.06115 9998 ft 303 kts 268°
2026-05-07 19:00 39.98321 4.03376 10704 ft 308 kts 286°
2026-05-07 19:00 39.99162 4.00790 11317 ft 318 kts 301°
2026-05-07 19:00 40.00580 3.98462 11529 ft 340 kts 315°
2026-05-07 19:00 40.02272 3.96217 11979 ft 352 kts 315°
2026-05-07 19:01 40.04001 3.93913 12634 ft 358 kts 315°
2026-05-07 19:01 40.05745 3.91570 13350 ft 361 kts 314°
2026-05-07 19:01 40.07496 3.89197 14019 ft 365 kts 314°
2026-05-07 19:01 40.09239 3.86824 14628 ft 369 kts 314°
2026-05-07 19:02 40.11020 3.84398 15243 ft 372 kts 313°
2026-05-07 19:02 40.12820 3.81945 15857 ft 375 kts 313°
2026-05-07 19:02 40.14637 3.79469 16465 ft 380 kts 313°
2026-05-07 19:02 40.16482 3.76953 16981 ft 386 kts 313°
2026-05-07 19:03 40.18353 3.74402 17544 ft 391 kts 313°
2026-05-07 19:03 40.20247 3.71820 17889 ft 395 kts 313°
2026-05-07 19:03 40.22140 3.69232 17955 ft 391 kts 312°
2026-05-07 19:03 40.24011 3.66669 17961 ft 388 kts 312°
2026-05-07 19:04 40.25875 3.64118 17961 ft 387 kts 312°
2026-05-07 19:04 40.27739 3.61570 17962 ft 387 kts 312°
2026-05-07 19:04 40.29576 3.59057 17962 ft 387 kts 312°
2026-05-07 19:04 40.31436 3.56508 17961 ft 387 kts 312°
2026-05-07 19:05 40.33292 3.53954 17965 ft 387 kts 312°
2026-05-07 19:05 40.35149 3.51396 17964 ft 387 kts 312°
2026-05-07 19:05 40.37004 3.48843 17967 ft 387 kts 312°
2026-05-07 19:05 40.38861 3.46292 17966 ft 387 kts 312°
2026-05-07 19:06 40.40718 3.43733 17964 ft 387 kts 312°
2026-05-07 19:06 40.44423 3.38610 17969 ft 386 kts 311°
2026-05-07 19:06 40.46250 3.36026 17972 ft 386 kts 310°
2026-05-07 19:07 40.48053 3.33419 17971 ft 385 kts 310°
2026-05-07 19:07 40.49844 3.30796 17972 ft 385 kts 309°
2026-05-07 19:07 40.51629 3.28173 17971 ft 385 kts 309°
2026-05-07 19:07 40.53416 3.25554 17971 ft 385 kts 310°
2026-05-07 19:08 40.55207 3.22936 17974 ft 385 kts 310°
2026-05-07 19:08 40.56977 3.20352 17974 ft 385 kts 310°
2026-05-07 19:08 40.58766 3.17736 17974 ft 385 kts 310°
2026-05-07 19:08 40.60560 3.15114 17974 ft 385 kts 310°
2026-05-07 19:09 40.62353 3.12494 17974 ft 385 kts 310°
2026-05-07 19:09 40.64147 3.09873 17973 ft 385 kts 310°
2026-05-07 19:09 40.65936 3.07259 17973 ft 385 kts 310°
2026-05-07 19:09 40.67730 3.04629 17968 ft 385 kts 310°
2026-05-07 19:10 40.69505 3.02026 17969 ft 379 kts 310°
2026-05-07 19:10 40.71257 2.99454 17969 ft 376 kts 310°
2026-05-07 19:10 40.72972 2.96933 17826 ft 371 kts 310°
2026-05-07 19:10 40.74673 2.94425 17559 ft 363 kts 310°
2026-05-07 19:11 40.76336 2.91975 17296 ft 355 kts 310°
2026-05-07 19:11 40.77931 2.89534 17032 ft 348 kts 304°
2026-05-07 19:11 40.79207 2.86849 16779 ft 344 kts 298°
2026-05-07 19:11 40.80396 2.84113 16515 ft 343 kts 298°
2026-05-07 19:12 40.81582 2.81393 16251 ft 341 kts 298°
2026-05-07 19:12 40.82764 2.78685 16009 ft 339 kts 298°
2026-05-07 19:12 40.83924 2.76029 15774 ft 336 kts 298°
2026-05-07 19:12 40.85083 2.73375 15440 ft 333 kts 298°
2026-05-07 19:13 40.86240 2.70724 15055 ft 333 kts 298°
2026-05-07 19:13 40.87393 2.68079 14669 ft 332 kts 298°
2026-05-07 19:13 40.88544 2.65434 14282 ft 331 kts 300°
2026-05-07 19:13 40.89685 2.62802 13894 ft 329 kts 300°
2026-05-07 19:14 40.90821 2.60181 13472 ft 328 kts 300°
2026-05-07 19:14 40.91949 2.57578 13084 ft 325 kts 300°
2026-05-07 19:14 40.93050 2.55034 12698 ft 322 kts 300°
2026-05-07 19:14 40.94156 2.52472 12303 ft 320 kts 300°
2026-05-07 19:15 40.95255 2.49927 11918 ft 317 kts 300°
2026-05-07 19:15 40.96347 2.47399 11520 ft 316 kts 300°
2026-05-07 19:15 40.97433 2.44885 11134 ft 314 kts 300°
2026-05-07 19:15 40.98513 2.42375 10716 ft 313 kts 300°
2026-05-07 19:16 40.99589 2.39871 10323 ft 312 kts 300°
2026-05-07 19:16 41.00656 2.37388 10008 ft 306 kts 300°
2026-05-07 19:16 41.01670 2.35020 9779 ft 295 kts 299°
2026-05-07 19:16 41.02618 2.32639 9579 ft 291 kts 297°
2026-05-07 19:17 41.03523 2.30244 9360 ft 290 kts 296°
2026-05-07 19:17 41.04409 2.27852 9106 ft 289 kts 296°
2026-05-07 19:17 41.05295 2.25459 8841 ft 289 kts 296°
2026-05-07 19:17 41.06185 2.23077 8575 ft 288 kts 296°
2026-05-07 19:18 41.06859 2.20592 8322 ft 287 kts 282°
2026-05-07 19:18 41.07037 2.17958 8054 ft 287 kts 268°
2026-05-07 19:18 41.06970 2.15308 7789 ft 287 kts 268°
2026-05-07 19:18 41.06912 2.12668 7530 ft 287 kts 268°
2026-05-07 19:19 41.06859 2.10058 7271 ft 287 kts 268°
2026-05-07 19:19 41.06804 2.07428 7010 ft 285 kts 268°
2026-05-07 19:19 41.06749 2.04814 6744 ft 284 kts 268°
2026-05-07 19:19 41.06693 2.02206 6480 ft 282 kts 268°
2026-05-07 19:20 41.06634 1.99611 6207 ft 280 kts 268°
2026-05-07 19:20 41.06577 1.97035 5946 ft 280 kts 268°
2026-05-07 19:20 41.06519 1.94473 5732 ft 273 kts 268°
2026-05-07 19:20 41.06477 1.92009 5602 ft 262 kts 272°
2026-05-07 19:21 41.06865 1.89754 5426 ft 252 kts 296°
2026-05-07 19:21 41.07881 1.87921 5267 ft 246 kts 320°
2026-05-07 19:21 41.09324 1.86739 5047 ft 244 kts 337°
2026-05-07 19:21 41.10869 1.85821 4785 ft 243 kts 337°
2026-05-07 19:22 41.12408 1.84906 4508 ft 242 kts 336°
2026-05-07 19:22 41.13948 1.84030 4238 ft 240 kts 343°
2026-05-07 19:22 41.15571 1.83548 3981 ft 237 kts 351°
2026-05-07 19:22 41.17153 1.83145 3911 ft 227 kts 351°
2026-05-07 19:23 41.18670 1.82757 3809 ft 218 kts 352°
2026-05-07 19:23 41.20111 1.82810 3709 ft 206 kts 20°
2026-05-07 19:23 41.21294 1.83789 3585 ft 200 kts 51°
2026-05-07 19:23 41.21973 1.85357 3498 ft 195 kts 67°
2026-05-07 19:24 41.22525 1.86965 3297 ft 188 kts 67°
2026-05-07 19:24 41.23064 1.88532 3055 ft 184 kts 67°
2026-05-07 19:24 41.23590 1.90059 2806 ft 180 kts 67°
2026-05-07 19:24 41.24106 1.91556 2563 ft 176 kts 66°
2026-05-07 19:25 41.24614 1.93028 2345 ft 174 kts 66°
2026-05-07 19:25 41.25115 1.94482 2102 ft 172 kts 66°
2026-05-07 19:25 41.25601 1.95893 1879 ft 169 kts 66°
2026-05-07 19:25 41.26085 1.97301 1659 ft 166 kts 66°
2026-05-07 19:26 41.26552 1.98656 1435 ft 157 kts 66°
2026-05-07 19:26 41.26985 1.99916 1233 ft 144 kts 65°
2026-05-07 19:26 41.27391 2.01097 1046 ft 138 kts 65°
2026-05-07 19:26 41.27785 2.02244 850 ft 135 kts 66°
2026-05-07 19:27 41.28173 2.03374 680 ft 134 kts 66°
2026-05-07 19:27 41.28555 2.04496 493 ft 135 kts 66°
2026-05-07 19:27 41.28949 2.05635 293 ft 136 kts 65°
2026-05-07 19:27 41.29346 2.06772 132 ft 135 kts 66°
2026-05-07 19:28 41.29727 2.07892 29 ft 126 kts 66°
2026-05-07 19:28 41.30036 2.08809 21 ft 86 kts 65°
2026-05-07 19:28 41.30219 2.09344 19 ft 48 kts 65°
2026-05-07 19:28 41.30328 2.09660 17 ft 32 kts 65°
2026-05-07 19:29 41.30354 2.09793 19 ft 5 kts 120°
2026-05-07 19:29 41.30328 2.09816 17 ft 5 kts 156°
2026-05-07 19:29 41.30300 2.09833 17 ft 4 kts 155°
2026-05-07 19:29 41.30273 2.09850 17 ft 4 kts 155°
2026-05-07 19:30 41.30250 2.09863 16 ft 3 kts 158°
2026-05-07 19:30 41.30217 2.09861 16 ft 8 kts 201°
2026-05-07 19:30 41.30189 2.09804 17 ft 7 kts 245°
2026-05-07 19:30 41.30170 2.09747 16 ft 6 kts 245°
2026-05-07 19:31 41.30144 2.09673 16 ft 11 kts 246°
2026-05-07 19:31 41.30116 2.09589 17 ft 9 kts 246°
2026-05-07 19:31 41.30092 2.09517 18 ft 8 kts 245°
2026-05-07 19:31 41.30065 2.09439 18 ft 12 kts 246°
2026-05-07 19:32 41.30027 2.09329 16 ft 13 kts 245°
2026-05-07 19:32 41.29993 2.09231 17 ft 11 kts 246°
2026-05-07 19:32 41.29965 2.09148 19 ft 9 kts 246°
2026-05-07 19:32 41.29941 2.09076 17 ft 9 kts 245°
2026-05-07 19:33 41.29906 2.08977 19 ft 12 kts 245°
2026-05-07 19:33 41.29876 2.08890 21 ft 9 kts 246°
2026-05-07 19:33 41.29849 2.08809 21 ft 10 kts 246°
2026-05-07 19:33 41.29815 2.08710 18 ft 15 kts 245°
2026-05-07 19:34 41.29771 2.08581 17 ft 15 kts 245°
2026-05-07 19:34 41.29728 2.08457 17 ft 15 kts 245°
2026-05-07 19:34 41.29688 2.08337 18 ft 12 kts 245°
2026-05-07 19:34 41.29653 2.08237 17 ft 12 kts 245°
2026-05-07 19:35 41.29620 2.08141 16 ft 10 kts 245°
2026-05-07 19:35 41.29592 2.08058 16 ft 10 kts 245°
2026-05-07 19:35 41.29565 2.07980 16 ft 9 kts 246°
2026-05-07 19:35 41.29524 2.07937 16 ft 8 kts 178°
2026-05-07 19:36 41.29470 2.07968 16 ft 7 kts 155°
2026-05-07 19:36 41.29427 2.07993 16 ft 6 kts 155°
2026-05-07 19:36 41.29391 2.08016 17 ft 5 kts 155°
2026-05-07 19:36 41.29359 2.08035 18 ft 5 kts 156°
2026-05-07 19:37 41.29327 2.08053 20 ft 5 kts 156°
2026-05-07 19:37 41.29292 2.08069 20 ft 7 kts 167°
2026-05-07 19:37 41.29244 2.08093 19 ft 7 kts 155°
2026-05-07 19:37 41.29220 2.08107 19 ft 2 kts 156°
2026-05-07 19:38 41.29211 2.08113 20 ft 1 kts 155°
2026-05-07 19:38 41.29208 2.08115 20 ft 0 kts 155°